Salt Lake City, UT

1:38 AM MDT on May 25, 2017 (GMT -0600)
Salt Lake City International

Weather History for KSLC - February, 2014

Change the Weather History Date:

Saturday, February 22, 2014

  Actual Average Record
Temperature  
Mean Temperature 44 °F 36 °F  
Max Temperature 54 °F 46 °F 65 °F (1958)
Min Temperature 33 °F 27 °F 6 °F (1975)
Degree Days  
Heating Degree Days 21 28  
Month to date heating degree days 547 699  
Since 1 July heating degree days 3901 4093  
Cooling Degree Days 0 0  
Month to date cooling degree days 0 0  
Year to date cooling degree days 0 0  
Moisture  
Dew Point 22 °F    
Average Humidity 48    
Maximum Humidity 69    
Minimum Humidity 26    
Precipitation  
Precipitation 0.00 in 0.04 in 0.50 in (1996)
Month to date precipitation 0.91 0.95  
Year to date precipitation 2.11 2.20  
Snow  
Snow 0.00 in 0.30 in 9.90 in (1994)
Month to date snowfall 2.1 8.6  
Since 1 July snowfall 34.9 43.3  
Snow Depth 0.00 in    
Sea Level Pressure  
Sea Level Pressure 29.96 in    
Wind  
Wind Speed 5 mph (SSE)    
Max Wind Speed 10 mph    
Max Gust Speed 13 mph    
Visibility 10 miles    
Events      
T = Trace of Precipitation, MM = Missing Value Source: NWS Daily Summary

Daily Weather History Graph

Daily Weather History Graph

Search for Another Location

Airport or City:

Trip Planner

Search our weather history database for the weather conditions in past years. The results will help you decide how hot, cold, wet, or windy it might be!

Date:

Astronomy

Feb. 22, 2014 Rise Set
Actual Time 7:12 AM MST 6:11 PM MST
Civil Twilight 6:44 AM MST 6:38 PM MST
Nautical Twilight 6:12 AM MST 7:10 PM MST
Astronomical Twilight 5:40 AM MST 7:42 PM MST
Moon 1:12 AM MST (2/22) 11:24 AM MST (2/22)
Length of Visible Light 11h 54m
Length of Day
10h 58m
Waning Gibbous, 49% of the Moon is Illuminated
Feb 22
Waning Gibbous
Mar 1
New
Mar 8
First Quarter
Mar 16
Full
Mar 23
Last Quarter

Hourly Weather History & Observations

Time (MST) Temp. Windchill Dew Point Humidity Pressure Visibility Wind Dir Wind Speed Gust Speed Precip Events Conditions
12:53 AM 37.0 °F 32.4 °F 21.0 °F 52% 29.95 in 10.0 mi South 5.8 mph - N/A   Scattered Clouds
1:53 AM 34.0 °F 29.8 °F 21.0 °F 59% 29.95 in 10.0 mi ESE 4.6 mph - N/A   Scattered Clouds
2:53 AM 34.0 °F 27.2 °F 21.9 °F 61% 29.94 in 10.0 mi SE 8.1 mph - N/A   Scattered Clouds
3:53 AM 35.1 °F 28.6 °F 21.9 °F 59% 29.94 in 10.0 mi SE 8.1 mph - N/A   Mostly Cloudy
4:53 AM 34.0 °F 27.2 °F 23.0 °F 64% 29.94 in 10.0 mi SE 8.1 mph - N/A   Mostly Cloudy
5:53 AM 34.0 °F 29.8 °F 25.0 °F 70% 29.95 in 10.0 mi SSE 4.6 mph - N/A   Mostly Cloudy
6:53 AM 34.0 °F 28.0 °F 25.0 °F 70% 29.95 in 10.0 mi SE 6.9 mph - N/A   Mostly Cloudy
7:53 AM 37.0 °F 31.6 °F 23.0 °F 57% 29.96 in 10.0 mi SE 6.9 mph - N/A   Mostly Cloudy
8:53 AM 37.9 °F 33.5 °F 23.0 °F 55% 29.98 in 10.0 mi SSE 5.8 mph - N/A   Mostly Cloudy
9:53 AM 39.9 °F 37.8 °F 23.0 °F 51% 29.98 in 10.0 mi SSE 3.5 mph - N/A   Mostly Cloudy
10:53 AM 44.1 °F 39.5 °F 25.0 °F 47% 29.98 in 10.0 mi SSW 8.1 mph - N/A   Mostly Cloudy
11:53 AM 48.0 °F - 19.9 °F 33% 29.99 in 10.0 mi Calm Calm - N/A   Mostly Cloudy
12:53 PM 50.0 °F - 19.9 °F 31% 29.97 in 10.0 mi Variable 3.5 mph - N/A   Mostly Cloudy
1:53 PM 50.0 °F - 21.0 °F 32% 29.96 in 10.0 mi NNE 4.6 mph - N/A   Mostly Cloudy
2:53 PM 50.0 °F - 18.0 °F 28% 29.94 in 10.0 mi Variable 3.5 mph - N/A   Mostly Cloudy
3:53 PM 53.1 °F - 18.0 °F 25% 29.93 in 10.0 mi Calm Calm - N/A   Mostly Cloudy
4:53 PM 54.0 °F - 19.0 °F 25% 29.92 in 10.0 mi Variable 6.9 mph - N/A   Mostly Cloudy
5:53 PM 50.0 °F - 21.9 °F 33% 29.94 in 10.0 mi North 5.8 mph - N/A   Mostly Cloudy
6:53 PM 46.9 °F - 25.0 °F 42% 29.95 in 10.0 mi NNE 5.8 mph - N/A   Mostly Cloudy
7:53 PM 46.9 °F - 21.0 °F 36% 29.96 in 10.0 mi North 6.9 mph - N/A   Mostly Cloudy
8:53 PM 44.1 °F 41.5 °F 25.0 °F 47% 29.96 in 10.0 mi WSW 4.6 mph - N/A   Mostly Cloudy
9:53 PM 42.1 °F 39.2 °F 25.0 °F 51% 29.97 in 10.0 mi SSW 4.6 mph - N/A   Mostly Cloudy
10:53 PM 42.1 °F 40.2 °F 24.1 °F 49% 29.97 in 10.0 mi WSW 3.5 mph - N/A   Mostly Cloudy
11:53 PM 42.1 °F 37.1 °F 24.1 °F 49% 29.96 in 10.0 mi ESE 8.1 mph - N/A   Mostly Cloudy